TimeEST,TemperatureF,Dew PointF,Humidity,Sea Level PressureIn,VisibilityMPH,Wind Direction,Wind SpeedMPH,Gust SpeedMPH,PrecipitationIn,Events,Conditions,WindDirDegrees,DateUTC
12:09 AM,33.8,26.6,75,30.09,10.0,WNW,9.2,-,0.00,Snow,Light Snow,300,2012-12-30 05:09:00
12:53 AM,33.1,26.1,75,30.13,7.0,WNW,10.4,17.3,0.00,Snow,Light Snow,290,2012-12-30 05:53:00
1:53 AM,30.9,25.0,79,30.16,6.0,West,10.4,18.4,0.00,Snow,Light Snow,280,2012-12-30 06:53:00
2:05 AM,30.2,24.8,80,30.14,9.0,West,15.0,20.7,0.00,,Overcast,280,2012-12-30 07:05:00
2:53 AM,30.0,24.1,79,30.19,10.0,WNW,10.4,-,0.00,,Overcast,290,2012-12-30 07:53:00
3:53 AM,30.0,23.0,75,30.21,10.0,West,8.1,-,N/A,,Overcast,280,2012-12-30 08:53:00
4:06 AM,28.4,21.2,74,30.18,10.0,West,12.7,21.9,N/A,,Overcast,260,2012-12-30 09:06:00
4:53 AM,28.9,21.0,72,30.22,10.0,West,10.4,18.4,N/A,,Overcast,270,2012-12-30 09:53:00
5:53 AM,28.9,21.9,75,30.24,10.0,WSW,16.1,-,N/A,,Overcast,250,2012-12-30 10:53:00
6:53 AM,28.0,21.0,75,30.26,10.0,West,12.7,-,N/A,,Overcast,260,2012-12-30 11:53:00
7:53 AM,28.9,21.0,72,30.27,10.0,WSW,16.1,-,N/A,,Overcast,250,2012-12-30 12:53:00
8:53 AM,28.9,21.0,72,30.28,10.0,WSW,16.1,-,N/A,,Overcast,250,2012-12-30 13:53:00
9:53 AM,28.9,21.9,75,30.29,10.0,WSW,13.8,-,N/A,,Overcast,250,2012-12-30 14:53:00
10:53 AM,28.9,21.9,75,30.31,10.0,WSW,13.8,-,N/A,,Overcast,250,2012-12-30 15:53:00
11:53 AM,28.9,21.9,75,30.30,10.0,WSW,15.0,-,N/A,,Overcast,250,2012-12-30 16:53:00
12:53 PM,28.9,21.9,75,30.29,10.0,West,13.8,-,N/A,,Overcast,260,2012-12-30 17:53:00
1:34 PM,30.2,21.2,69,30.25,10.0,WSW,15.0,-,N/A,,Overcast,240,2012-12-30 18:34:00
1:53 PM,30.0,21.9,72,30.27,10.0,WSW,15.0,-,N/A,,Overcast,250,2012-12-30 18:53:00
2:53 PM,30.0,23.0,75,30.27,10.0,WSW,12.7,-,N/A,,Overcast,240,2012-12-30 19:53:00
3:53 PM,30.9,24.1,76,30.26,10.0,SW,10.4,-,N/A,,Overcast,230,2012-12-30 20:53:00
4:53 PM,28.0,21.0,75,30.24,7.0,South,8.1,-,N/A,,Overcast,170,2012-12-30 21:53:00
5:53 PM,28.0,21.0,75,30.23,9.0,South,10.4,-,N/A,,Overcast,180,2012-12-30 22:53:00
6:53 PM,27.0,18.0,69,30.24,10.0,South,16.1,-,N/A,,Overcast,180,2012-12-30 23:53:00
7:53 PM,27.0,19.0,72,30.23,10.0,South,11.5,-,N/A,,Mostly Cloudy,180,2012-12-31 00:53:00
8:30 PM,26.6,19.4,74,30.18,9.0,South,11.5,-,N/A,,Scattered Clouds,170,2012-12-31 01:30:00
8:53 PM,25.0,18.0,75,30.21,8.0,South,9.2,-,N/A,,Clear,170,2012-12-31 01:53:00
9:53 PM,25.0,19.0,78,30.17,8.0,South,10.4,-,N/A,,Clear,180,2012-12-31 02:53:00
10:53 PM,25.0,19.9,81,30.15,8.0,South,11.5,-,N/A,,Clear,180,2012-12-31 03:53:00
11:53 PM,27.0,21.0,78,30.15,8.0,South,12.7,-,N/A,,Clear,180,2012-12-31 04:53:00